Wetterstats.de || Aktuelle Messwerte / Archiv || Stationsstandorte || Wetterblog || Wissenswertes


Monatsübersicht für Mai 2019 Diagramm
 
Wetter Information zur Wetteranzeige
Zeitraffer
Tageslänge (hh:mm)
Höchsttemperatur in °C
Uhrzeit
Tiefsttemperatur in °C
Uhrzeit
Luftfeuchte (max., in %)
Uhrzeit
Luftfeuchte (min., in %)
Uhrzeit
Luftdruck (max., in hPa)
Uhrzeit
Luftdruck (min., in hPa)
Uhrzeit
Luftdruck (Ø, in hPa)
Regenrate (max, mm/h)
Uhrzeit
Niederschlag in mm
Niederschlagsdauer (hh:mm)
Verdunstung in mm
Solar in W/m² (Ø)
Solar in W/m² (max.)
UV-Index (max.)
Sonnenscheindauer (hh:mm)
Windrichtung (Ø)
Windstärke (Ø in km/h)
Windstärke (Ø in bft)
Windböe (max., in km/h)
Uhrzeit
Windböe (max., in bft)
Uhrzeit
Taupunkt (max., in °C)
Uhrzeit
Taupunkt (min., in °C)
Uhrzeit
Windchill (min., in °C)
Uhrzeit
Gewitterindex (max.)
Uhrzeit
Waldbrandindex (max.)
Uhrzeit
Graslandfeuerindex (max.)
Uhrzeit
Staubsturm-Index (max.)
Uhrzeit
01
Zeitraffer
15:02
19.2
12:05 Uhr
10.6
23:55 Uhr

81
05:55 Uhr
47
00:00 Uhr
1014.8
00:00 Uhr

1008.5
23:55 Uhr
1011.3
0,000
00:00 Uhr
0,000
00:00:00
1.727
185
805
13:25 Uhr
3.0
13:00 Uhr

02:24:00
0,6
0
11,3
17:45 Uhr

2
9.7
12:05 Uhr
2.0
00:00 Uhr
10.6
23:55 Uhr
0
00:00 Uhr
5.9
00:00 Uhr
5.9
00:00 Uhr
1.4
14:10 Uhr
02
Zeitraffer
15:06
14.1
17:30 Uhr
7.8
03:05 Uhr

82
23:10 Uhr
65
17:00 Uhr
1008.6
00:00 Uhr

1002.6
19:40 Uhr
1005.0
0,000
00:00 Uhr
0,000
00:00:00
0.762
69
188
13:50 Uhr
1.0
13:25 Uhr

00:00:00
0,8
0
8,0
03:40 Uhr

2
8.2
20:50 Uhr
3.7
06:30 Uhr
7.8
03:05 Uhr
0
00:00 Uhr
5.9
00:00 Uhr
5.9
00:00 Uhr
1.3
05:25 Uhr
03
Zeitraffer
15:09
13.4
14:20 Uhr
6.2
06:15 Uhr

80
00:00 Uhr
37
12:45 Uhr
1007.5
09:10 Uhr

1003.2
00:00 Uhr
1006.2
0,000
00:00 Uhr
0,000
00:00:00
1.778
216
907
11:55 Uhr
2.8
12:10 Uhr

03:32:00
1,0
0
12,9
10:30 Uhr

2
7.3
00:00 Uhr
-1.5
12:45 Uhr
6.2
06:15 Uhr
0
00:00 Uhr
5.9
00:00 Uhr
5.9
00:00 Uhr
1.5
10:35 Uhr
04
Zeitraffer
15:13
12.2
15:30 Uhr
5.2
23:50 Uhr

72
06:00 Uhr
37
15:30 Uhr
1010.2
23:50 Uhr

1004.0
12:30 Uhr
1005.6
0,000
00:00 Uhr
0,000
00:00:00
1.245
129
364
13:10 Uhr
1.6
14:20 Uhr

00:01:00
0,7
0
20,9
18:10 Uhr

4
2.4
00:45 Uhr
-2.1
15:20 Uhr
5.2
23:50 Uhr
0
00:00 Uhr
5.9
00:00 Uhr
5.9
00:00 Uhr
2.0
18:10 Uhr
05
Zeitraffer
15:17
13.2
11:35 Uhr
1.4
05:20 Uhr

85
05:25 Uhr
29
13:40 Uhr
1015.7
21:20 Uhr

1010.3
00:00 Uhr
1014.3
0,000
00:00 Uhr
0,000
00:00:00
2.108
266
909
12:15 Uhr
2.4
13:40 Uhr

05:44:00
0,6
0
14,5
14:35 Uhr

3
3.0
09:30 Uhr
-4.6
13:40 Uhr
1.4
05:20 Uhr
0
00:00 Uhr
5.9
00:00 Uhr
5.9
00:00 Uhr
1.9
14:40 Uhr
06
Zeitraffer
15:21
14.4
13:50 Uhr
4.2
05:30 Uhr

76
06:15 Uhr
38
13:45 Uhr
1016.8
22:10 Uhr

1014.9
16:15 Uhr
1015.9
0,000
00:00 Uhr
0,000
00:00:00
1.930
228
911
13:50 Uhr
2.8
12:55 Uhr

04:56:00
0,6
0
9,7
11:05 Uhr

2
4.0
17:35 Uhr
-1.4
00:05 Uhr
4.2
05:30 Uhr
0
00:00 Uhr
5.9
00:00 Uhr
5.9
00:00 Uhr
1.4
11:10 Uhr
07
Zeitraffer
15:23
14.9
13:05 Uhr
6.3
05:15 Uhr

89
04:30 Uhr
30
16:35 Uhr
1017.3
08:50 Uhr

1015.0
19:10 Uhr
1016.1
2,400
02:30 Uhr
0,800
00:04:00
2.032
248
928
13:05 Uhr
3.1
12:40 Uhr

04:03:00
0,5
0
9,7
17:00 Uhr

2
5.0
08:15 Uhr
-3.6
16:40 Uhr
6.3
05:15 Uhr
0
00:00 Uhr
5.9
00:00 Uhr
5.9
00:00 Uhr
1.4
14:30 Uhr
08
Zeitraffer
15:27
17.9
15:20 Uhr
3.3
04:30 Uhr

81
05:00 Uhr
32
15:40 Uhr
1015.1
00:15 Uhr

998.7
23:55 Uhr
1007.5
0,000
00:00 Uhr
0,000
00:00:00
3.048
281
831
13:00 Uhr
2.7
13:10 Uhr

06:59:00
3,9
1
33,8
15:40 Uhr

5
7.3
23:30 Uhr
0.2
04:30 Uhr
3.3
04:30 Uhr
0
00:00 Uhr
5.9
00:00 Uhr
5.9
00:00 Uhr
3.0
15:45 Uhr
09
Zeitraffer
15:31
16.8
15:00 Uhr
12.3
02:00 Uhr

81
02:05 Uhr
57
15:25 Uhr
1000.9
23:45 Uhr

997.4
03:10 Uhr
999.0
2,400
13:50 Uhr
0,200
00:01:00
1.067
128
740
11:50 Uhr
2.4
11:50 Uhr

00:14:00
2,1
1
30,6
01:00 Uhr

5
10.6
13:45 Uhr
6.6
00:20 Uhr
9.9
02:40 Uhr
2
01:45 Uhr
5.9
00:00 Uhr
5.9
00:00 Uhr
2.1
01:00 Uhr
10
Zeitraffer
15:34
18.5
11:30 Uhr
10.4
23:55 Uhr

90
05:35 Uhr
54
14:20 Uhr
1011.5
23:05 Uhr

1000.7
00:10 Uhr
1005.4
2,400
04:25 Uhr
0,600
00:03:00
1.473
156
851
14:10 Uhr
3.3
13:05 Uhr

01:09:00
0,5
0
9,7
14:20 Uhr

2
10.8
08:15 Uhr
7.0
23:45 Uhr
10.4
23:55 Uhr
2
04:25 Uhr
5.9
00:00 Uhr
5.9
00:00 Uhr
1.4
18:25 Uhr
11
Zeitraffer
15:37
15.4
14:20 Uhr
6.9
05:40 Uhr

88
05:40 Uhr
48
22:55 Uhr
1018.1
23:55 Uhr

1011.1
11:40 Uhr
1012.6
2,400
17:30 Uhr
0,600
00:03:00
1.956
209
729
10:50 Uhr
2.6
11:10 Uhr

04:09:00
2,6
1
20,9
09:10 Uhr

4
9.5
17:55 Uhr
0.3
23:00 Uhr
6.9
05:40 Uhr
0
00:00 Uhr
5.9
00:00 Uhr
5.9
00:00 Uhr
2.3
22:00 Uhr
12
Zeitraffer
15:40
16.8
12:20 Uhr
9.0
06:35 Uhr

74
05:25 Uhr
26
14:45 Uhr
1032.5
23:40 Uhr

1018.2
00:00 Uhr
1025.5
0,000
00:00 Uhr
0,000
00:00:00
2.946
291
838
12:35 Uhr
3.4
12:20 Uhr

06:07:00
2,2
1
22,5
17:15 Uhr

4
5.1
08:35 Uhr
-3.3
14:45 Uhr
9.0
06:35 Uhr
0
00:00 Uhr
5.9
00:00 Uhr
5.9
00:00 Uhr
2.3
17:05 Uhr
13
Zeitraffer
15:44
16.4
11:00 Uhr
6.0
05:15 Uhr

70
05:40 Uhr
28
12:40 Uhr
1034.6
08:25 Uhr

1032.2
17:55 Uhr
1033.4
0,000
00:00 Uhr
0,000
00:00:00
2.769
284
949
11:25 Uhr
3.4
12:30 Uhr

06:38:00
1,8
0
24,1
14:30 Uhr

4
4.8
09:05 Uhr
-2.5
14:20 Uhr
6.0
05:15 Uhr
0
00:00 Uhr
5.9
00:00 Uhr
5.9
00:00 Uhr
2.4
18:40 Uhr
14
Zeitraffer
15:47
12.9
16:25 Uhr
4.3
05:25 Uhr

79
05:25 Uhr
36
16:25 Uhr
1033.2
00:00 Uhr

1028.6
23:50 Uhr
1031.3
0,000
00:00 Uhr
0,000
00:00:00
2.057
151
654
08:55 Uhr
3.4
13:10 Uhr

02:36:00
5,1
1
37,0
14:35 Uhr

5
4.9
08:00 Uhr
-2.6
20:40 Uhr
4.3
05:25 Uhr
0
00:00 Uhr
5.9
00:00 Uhr
5.9
00:00 Uhr
3.2
17:00 Uhr
15
Zeitraffer
15:50
13.4
15:00 Uhr
2.3
04:50 Uhr

75
04:45 Uhr
37
14:50 Uhr
1028.5
00:00 Uhr

1021.2
23:50 Uhr
1024.9
0,000
00:00 Uhr
0,000
00:00:00
2.184
193
753
11:50 Uhr
3.1
11:50 Uhr

02:10:00
5,1
1
32,2
10:05 Uhr

5
4.2
20:10 Uhr
-2.3
09:55 Uhr
2.3
04:50 Uhr
0
00:00 Uhr
5.9
00:00 Uhr
5.9
00:00 Uhr
3.0
10:10 Uhr


 
Wetter Information zur Wetteranzeige
Zeitraffer
Tageslänge (hh:mm)
Höchsttemperatur in °C
Uhrzeit
Tiefsttemperatur in °C
Uhrzeit
Luftfeuchte (max., in %)
Uhrzeit
Luftfeuchte (min., in %)
Uhrzeit
Luftdruck (max., in hPa)
Uhrzeit
Luftdruck (min., in hPa)
Uhrzeit
Luftdruck (Ø, in hPa)
Regenrate (max, mm/h)
Uhrzeit
Niederschlag in mm
Niederschlagsdauer (hh:mm)
Verdunstung in mm
Solar in W/m² (Ø)
Solar in W/m² (max.)
UV-Index (max.)
Sonnenscheindauer (hh:mm)
Windrichtung (Ø)
Windstärke (Ø in km/h)
Windstärke (Ø in bft)
Windböe (max., in km/h)
Uhrzeit
Windböe (max., in bft)
Uhrzeit
Taupunkt (max., in °C)
Uhrzeit
Taupunkt (min., in °C)
Uhrzeit
Windchill (min., in °C)
Uhrzeit
Gewitterindex (max.)
Uhrzeit
Waldbrandindex (max.)
Uhrzeit
Graslandfeuerindex (max.)
Uhrzeit
Staubsturm-Index (max.)
Uhrzeit
16
Zeitraffer
15:53
11.7
18:20 Uhr
7.4
02:55 Uhr

95
19:25 Uhr
62
00:00 Uhr
1021.2
00:00 Uhr

1013.2
17:20 Uhr
1015.4
4,800
11:40 Uhr
8,400
00:42:00
0.432
37
117
14:00 Uhr
0.6
13:10 Uhr

00:00:00
2,8
1
22,5
09:25 Uhr

4
10.9
19:25 Uhr
2.3
00:15 Uhr
4.9
09:25 Uhr
3
21:40 Uhr
5.9
00:00 Uhr
5.9
00:00 Uhr
2.2
14:25 Uhr
17
Zeitraffer
15:56
18.9
17:05 Uhr
6.7
05:05 Uhr

97
04:20 Uhr
56
17:05 Uhr
1013.6
00:10 Uhr

1008.2
18:45 Uhr
1010.7
2,400
03:40 Uhr
0,200
00:01:00
2.515
263
925
12:45 Uhr
3.8
12:40 Uhr

05:08:00
2,3
1
20,9
17:35 Uhr

4
11.5
20:35 Uhr
6.1
05:10 Uhr
6.7
05:05 Uhr
3
21:45 Uhr
0.4
22:20 Uhr
4.0
17:05 Uhr
0.0
00:00 Uhr
18
Zeitraffer
15:59
23.9
17:05 Uhr
10.7
05:15 Uhr

92
05:30 Uhr
34
18:10 Uhr
1008.9
00:00 Uhr

1004.7
18:25 Uhr
1006.9
0,000
00:00 Uhr
0,000
00:00:00
3.429
303
935
13:40 Uhr
3.8
12:45 Uhr

06:53:00
3,2
1
32,2
11:30 Uhr

5
11.5
07:50 Uhr
6.9
18:10 Uhr
10.7
05:15 Uhr
3
00:00 Uhr
3.4
18:20 Uhr
5.9
08:50 Uhr
3.0
13:25 Uhr
19
Zeitraffer
16:02
24.7
13:40 Uhr
12.2
05:20 Uhr

80
02:15 Uhr
40
13:40 Uhr
1006.3
00:25 Uhr

1002.9
18:50 Uhr
1004.7
0,000
00:00 Uhr
0,000
00:00:00
3.861
304
862
13:30 Uhr
3.9
12:35 Uhr

08:01:00
4,9
1
37,0
15:55 Uhr

5
15.3
20:10 Uhr
8.8
05:15 Uhr
12.2
05:20 Uhr
9
22:00 Uhr
3.7
14:00 Uhr
5.9
00:00 Uhr
3.5
15:55 Uhr
20
Zeitraffer
16:05
24.8
12:10 Uhr
14.4
05:15 Uhr

91
20:45 Uhr
46
13:10 Uhr
1003.6
00:00 Uhr

999.7
19:40 Uhr
1001.5
21,600
17:50 Uhr
8,000
00:29:00
2.921
268
928
12:45 Uhr
4.5
12:45 Uhr

05:57:00
4,1
1
38,6
17:20 Uhr

5
17.0
19:15 Uhr
12.2
13:10 Uhr
14.2
06:10 Uhr
10
21:50 Uhr
5.9
09:05 Uhr
5.9
00:00 Uhr
2.8
12:10 Uhr
21
Zeitraffer
16:07
24.7
16:40 Uhr
12.6
06:15 Uhr

95
06:20 Uhr
47
16:00 Uhr
1007.3
22:50 Uhr

1001.3
00:25 Uhr
1003.6
4,800
22:45 Uhr
2,000
00:10:00
2.591
257
927
12:15 Uhr
4.2
12:15 Uhr

05:37:00
1,3
0
25,7
22:10 Uhr

4
15.0
20:55 Uhr
11.6
06:15 Uhr
12.6
06:15 Uhr
9
21:50 Uhr
0.0
00:00 Uhr
2.7
16:50 Uhr
0.0
00:00 Uhr
22
Zeitraffer
16:11
16.6
00:00 Uhr
12.7
08:39 Uhr

91
01:20 Uhr
75
21:59 Uhr
1015.7
23:04 Uhr

1006.9
00:00 Uhr
1011.9
2,400
00:15 Uhr
0,400
00:02:00
0.305
38
78
11:54 Uhr
0.5
11:29 Uhr

00:00:00
1,0
0
11,3
14:54 Uhr

2
14.7
00:00 Uhr
8.7
22:44 Uhr
12.7
08:39 Uhr
8
00:00 Uhr
0.0
00:00 Uhr
2.3
23:39 Uhr
0.0
00:00 Uhr
23
Zeitraffer
16:13
19.6
13:44 Uhr
9.4
06:19 Uhr

85
06:14 Uhr
42
11:54 Uhr
1017.6
09:09 Uhr

1015.7
00:04 Uhr
1016.6
0,000
00:04 Uhr
0,000
00:00:00
2.946
309
823
12:19 Uhr
4.1
12:19 Uhr

07:12:00
1,2
0
16,1
17:09 Uhr

3
8.9
23:44 Uhr
5.2
11:54 Uhr
9.4
06:19 Uhr
2
23:44 Uhr
0.0
00:04 Uhr
3.8
17:04 Uhr
0.0
00:04 Uhr
24
Zeitraffer
16:16
24.1
14:10 Uhr
10.2
05:09 Uhr

85
05:14 Uhr
34
16:40 Uhr
1016.0
00:09 Uhr

1009.9
19:55 Uhr
1012.7
0,000
00:04 Uhr
0,000
00:00:00
3.048
293
844
12:04 Uhr
3.9
11:54 Uhr

07:22:00
0,6
0
12,9
07:54 Uhr

2
9.8
23:30 Uhr
6.9
18:00 Uhr
10.2
05:09 Uhr
2
22:20 Uhr
3.1
15:05 Uhr
5.4
14:05 Uhr
0.5
14:55 Uhr
25
Zeitraffer
16:18
18.6
00:00 Uhr
11.6
06:10 Uhr

76
06:15 Uhr
49
01:15 Uhr
1014.6
22:45 Uhr

1010.6
00:00 Uhr
1013.3
0,000
00:00 Uhr
0,000
00:00:00
1.575
146
567
08:35 Uhr
2.7
12:35 Uhr

02:25:00
0,7
0
9,7
08:15 Uhr

2
9.6
00:00 Uhr
6.1
02:55 Uhr
11.6
06:10 Uhr
2
00:00 Uhr
3.2
01:50 Uhr
4.8
00:00 Uhr
0.1
08:35 Uhr
26
Zeitraffer
16:21
22.3
15:24 Uhr
9.6
04:30 Uhr

82
04:30 Uhr
42
14:50 Uhr
1014.4
00:00 Uhr

1007.4
23:39 Uhr
1011.1
0,000
00:00 Uhr
0,000
00:00:00
2.261
218
729
14:05 Uhr
4.0
13:35 Uhr

04:09:00
0,6
0
14,5
16:34 Uhr

3
10.5
20:09 Uhr
6.7
04:30 Uhr
9.6
04:30 Uhr
2
14:05 Uhr
3.8
15:34 Uhr
5.5
16:04 Uhr
1.0
13:50 Uhr
27
Zeitraffer
16:24
22.2
15:00 Uhr
17.6
23:55 Uhr

80
23:55 Uhr
56
00:14 Uhr
1007.4
00:04 Uhr

1004.9
23:50 Uhr
1005.8
0,000
00:04 Uhr
0,000
00:00:00
1.600
129
427
11:05 Uhr
4.1
14:00 Uhr

00:21:00
0,4
0
8,0
09:15 Uhr

2
14.1
23:55 Uhr
10.1
00:14 Uhr
17.6
23:55 Uhr
8
23:50 Uhr
3.6
14:35 Uhr
5.6
15:00 Uhr
0.9
16:10 Uhr
28
Zeitraffer
16:26
20.1
12:40 Uhr
12.0
23:50 Uhr

84
05:25 Uhr
48
15:45 Uhr
1011.5
23:55 Uhr

1003.6
03:45 Uhr
1005.4
0,000
00:00 Uhr
0,000
00:00:00
2.032
173
675
12:35 Uhr
3.5
12:35 Uhr

01:33:00
1,7
0
17,7
18:40 Uhr

3
14.0
00:00 Uhr
5.4
23:00 Uhr
12.0
23:50 Uhr
7
00:00 Uhr
3.8
13:25 Uhr
5.7
14:00 Uhr
1.9
16:50 Uhr
29
Zeitraffer
16:28
18.0
13:44 Uhr
9.3
04:29 Uhr

74
05:14 Uhr
35
16:49 Uhr
1023.5
23:19 Uhr

1011.5
00:00 Uhr
1018.5
0,000
00:00 Uhr
0,000
00:00:00
2.769
273
954
13:14 Uhr
4.5
13:04 Uhr

05:10:00
1,5
0
17,7
14:14 Uhr

3
6.2
07:34 Uhr
1.5
16:49 Uhr
9.3
04:29 Uhr
0
00:00 Uhr
4.1
14:04 Uhr
5.9
14:04 Uhr
1.8
14:19 Uhr
30
Zeitraffer
16:31
23.6
15:59 Uhr
8.0
04:19 Uhr

74
04:14 Uhr
31
12:04 Uhr
1024.2
06:44 Uhr

1020.3
17:49 Uhr
1022.5
0,000
00:04 Uhr
0,000
00:00:00
3.531
346
835
12:59 Uhr
4.2
12:59 Uhr

08:19:00
1,0
0
17,7
12:54 Uhr

3
11.3
22:34 Uhr
3.3
01:24 Uhr
8.0
04:19 Uhr
3
22:04 Uhr
4.6
15:29 Uhr
5.9
10:04 Uhr
1.8
11:24 Uhr
31
Zeitraffer
16:33
24.9
13:09 Uhr
15.7
05:14 Uhr

92
21:20 Uhr
52
17:40 Uhr
1022.3
21:50 Uhr

1020.6
16:55 Uhr
1021.4
19,200
20:50 Uhr
5,000
00:22:00
2.210
218
926
13:39 Uhr
5.2
12:44 Uhr

03:08:00
0,4
0
11,3
13:24 Uhr

2
17.2
19:55 Uhr
11.2
01:19 Uhr
15.7
05:14 Uhr
11
22:05 Uhr
5.0
18:10 Uhr
5.9
00:04 Uhr
1.3
12:54 Uhr

Seiten-Historie || Downloads || Impressum / Datenschutz